{"data":{"norad_id":57902,"intl_designator":"2023-146M","name":"STARLINK-30462","alt_names":[],"object_type":"PAYLOAD","status":"ACTIVE","operator":null,"country":"US","launch_date":"2023-09-20","launch_site_code":"AFETR","launch_vehicle":null,"mission":null,"orbit_class":"UNKNOWN","rcs_meters":null,"size_class":null,"mass_kg":null,"dimensions":null,"purposes":["comms"],"wikipedia_slug":null,"has_3d_model":false,"image_url":null,"decayed_at":null,"tle_current":{"epoch":"2026-05-24T17:35:13.519104Z","epoch_age_seconds":94803,"freshness":"FRESH","line1":"1 57902U 23146M   26144.73279536  .00003178  00000+0  12498-3 0  9993","line2":"2 57902  43.0065 244.9587 0002589 278.9395  81.1163 15.27579950148642","mean_motion":15.2757995,"eccentricity":0.0002589,"inclination_deg":43.0065,"raan_deg":244.9587,"arg_perigee_deg":278.9395,"mean_anomaly_deg":81.1163,"bstar":0.00012498,"rev_number":14864,"period_min":94.266751799145,"perigee_km":481.27288463862,"apogee_km":484.82560687667,"semimajor_km":6861.1862457576,"source":"CELESTRAK","updated_at":"2026-05-25T13:38:18.454107Z"}}}